Location: Abraham Lincoln Continuation High School
(33.9711°N, 117.3662°W)
Time: 08:50:39
(UTC+00:00)

Iridium 4 Rocket - Pass Details

Date: 23 January 2021
Orbit: 583 x 906 km, 86.9° (Epoch: 24 February)

Event Time Altitude Azimuth Distance (km) Brightness Sun altitude
Rises 01:35:31 0° 18° (NNE) 3,405 6.5 -5.6°
Reaches altitude 10° 01:38:58 10° 39° (NE) 2,406 5.6 -6.3°
Maximum altitude 01:42:13 16° 77° (ENE) 1,945 5.0 -6.9°
Drops below altitude 10° 01:45:20 10° 114° (ESE) 2,269 5.5 -7.6°
Sets 01:48:25 0° 136° (SE) 3,118 6.4 -8.2°
